Weather History for KDUJ - March, 2014

Change the Weather History Date:

Sunday, March 9, 2014

  Actual Average Record
Temperature  
Mean Temperature 26 °F 32 °F  
Max Temperature 33 °F 41 °F 68 °F (2002)
Min Temperature 19 °F 23 °F 1 °F (1984)
Degree Days  
Heating Degree Days 39 33  
Month to date heating degree days 368 306  
Since 1 July heating degree days 5451 5329  
Cooling Degree Days 0 0  
Month to date cooling degree days 0 0  
Year to date cooling degree days 0 0  
Moisture  
Dew Point 15 °F    
Average Humidity 64    
Maximum Humidity 81    
Minimum Humidity 47    
Precipitation  
Precipitation 0.00 in 0.10 in 1.24 in (1974)
Month to date precipitation 0.09 0.90  
Sea Level Pressure  
Sea Level Pressure 30.05 in    
Wind  
Wind Speed 11 mph (West)    
Max Wind Speed 18 mph    
Max Gust Speed 25 mph    
Visibility 10 miles    
Events      
T = Trace of Precipitation, MM = Missing Value Source: NWS Daily Summary

Daily Weather History Graph

Daily Weather History Graph

Search for Another Location

Airport or City:

Trip Planner

Search our weather history database for the weather conditions in past years. The results will help you decide how hot, cold, wet, or windy it might be!

Date:

Astronomy

Mar. 09, 2014 Rise Set
Actual Time 7:37 AM EDT 7:15 PM EDT
Civil Twilight 7:09 AM EDT 7:43 PM EDT
Nautical Twilight 6:37 AM EDT 8:15 PM EDT
Astronomical Twilight 6:05 AM EDT 8:47 PM EDT
Moon 1:04 PM EDT (3/9) 3:03 AM EDT (3/9)
Length of Visible Light 12h 33m
Length of Day
11h 38m
First Quarter, 61% of the Moon is Illuminated
Mar 9
First Quarter
Mar 16
Full
Mar 23
Last Quarter
Mar 30
New
Apr 7
First Quarter

Hourly Weather History & Observations

Time (EDT) Temp. Windchill Dew Point Humidity Pressure Visibility Wind Dir Wind Speed Gust Speed Precip Events Conditions
12:30 AM 26.1 °F 15.0 °F 19.0 °F 75% 29.96 in 10.0 mi NW 12.7 mph 20.7 mph N/A   Scattered Clouds
12:56 AM 25.0 °F 14.8 °F 19.0 °F 78% 30.01 in 10.0 mi WNW 10.4 mph 19.6 mph N/A   Mostly Cloudy
1:56 AM 25.0 °F 16.3 °F 18.0 °F 75% 30.03 in 10.0 mi WNW 8.1 mph - N/A   Mostly Cloudy
3:04 AM 25.0 °F 14.8 °F 18.0 °F 75% 29.97 in 10.0 mi WNW 10.4 mph - N/A   Overcast
3:39 AM 24.1 °F 12.5 °F 16.0 °F 71% 29.98 in 10.0 mi WNW 12.7 mph - N/A   Overcast
3:56 AM 23.0 °F 11.7 °F 16.0 °F 74% 30.03 in 10.0 mi WNW 11.5 mph - N/A   Overcast
4:24 AM 23.0 °F 13.1 °F 15.1 °F 72% 29.99 in 10.0 mi NW 9.2 mph - N/A   Scattered Clouds
4:56 AM 21.9 °F 11.7 °F 15.1 °F 75% 30.06 in 10.0 mi NW 9.2 mph - N/A   Mostly Cloudy
5:46 AM 21.9 °F 13.4 °F 15.1 °F 75% 30.02 in 10.0 mi NW 6.9 mph - N/A   Overcast
5:56 AM 21.9 °F 10.4 °F 14.0 °F 72% 30.09 in 10.0 mi NW 11.5 mph - N/A   Overcast
6:05 AM 21.9 °F 10.4 °F 14.0 °F 72% 30.03 in 10.0 mi NNW 11.5 mph - N/A   Overcast
6:56 AM 21.0 °F 13.4 °F 12.9 °F 71% 30.10 in 10.0 mi NW 5.8 mph - N/A   Overcast
7:54 AM 19.4 °F 11.5 °F 12.2 °F 74% 30.06 in 10.0 mi WNW 5.8 mph - N/A   Partly Cloudy
7:56 AM 19.0 °F 10.0 °F 12.0 °F 74% 30.14 in 10.0 mi WNW 6.9 mph - N/A   Partly Cloudy
8:17 AM 19.9 °F 9.3 °F 12.0 °F 71% 30.07 in 10.0 mi West 9.2 mph - N/A   Mostly Cloudy
8:35 AM 19.0 °F 8.2 °F 12.0 °F 74% 30.08 in 10.0 mi West 9.2 mph - N/A   Scattered Clouds
8:56 AM 19.9 °F 8.6 °F 12.9 °F 74% 30.16 in 10.0 mi West 10.4 mph - N/A   Partly Cloudy
9:56 AM 21.9 °F 11.0 °F 12.0 °F 66% 30.17 in 10.0 mi WNW 10.4 mph 16.1 mph N/A   Partly Cloudy
10:09 AM 21.9 °F 9.8 °F 12.0 °F 66% 30.10 in 10.0 mi WNW 12.7 mph - N/A   Mostly Cloudy
10:56 AM 23.0 °F 12.4 °F 12.9 °F 65% 30.18 in 10.0 mi WNW 10.4 mph - N/A   Overcast
11:56 AM 26.1 °F 15.0 °F 15.1 °F 63% 30.17 in 10.0 mi West 12.7 mph 20.7 mph N/A   Overcast
12:45 PM 27.0 °F 14.7 °F 15.1 °F 61% 30.09 in 10.0 mi West 16.1 mph - N/A   Scattered Clouds
12:56 PM 27.0 °F 17.3 °F 15.1 °F 61% 30.15 in 10.0 mi WSW 10.4 mph 23.0 mph N/A   Partly Cloudy
1:56 PM 30.0 °F 20.5 °F 17.1 °F 59% 30.12 in 10.0 mi West 11.5 mph - N/A   Clear
2:56 PM 30.9 °F 21.7 °F 16.0 °F 54% 30.09 in 10.0 mi WSW 11.5 mph 18.4 mph N/A   Clear
3:56 PM 32.0 °F 21.2 °F 17.1 °F 54% 30.07 in 10.0 mi WNW 16.1 mph 25.3 mph N/A   Partly Cloudy
4:56 PM 32.0 °F 21.2 °F 16.0 °F 52% 30.06 in 10.0 mi WSW 16.1 mph - N/A   Clear
5:56 PM 33.1 °F 23.0 °F 16.0 °F 50% 30.04 in 10.0 mi West 15.0 mph - N/A   Clear
6:56 PM 32.0 °F 24.8 °F 17.1 °F 54% 30.03 in 10.0 mi West 8.1 mph - N/A   Clear
7:56 PM 30.9 °F 22.8 °F 17.1 °F 57% 30.05 in 10.0 mi WSW 9.2 mph - N/A   Scattered Clouds
8:56 PM 30.0 °F 21.7 °F 17.1 °F 59% 30.02 in 10.0 mi WSW 9.2 mph - N/A   Partly Cloudy
9:56 PM 30.9 °F 23.5 °F 17.1 °F 57% 30.00 in 10.0 mi SW 8.1 mph - N/A   Partly Cloudy
10:56 PM 30.9 °F 22.8 °F 17.1 °F 57% 29.96 in 10.0 mi SW 9.2 mph - N/A   Clear
11:56 PM 32.0 °F 23.6 °F 17.1 °F 54% 29.93 in 10.0 mi SW 10.4 mph - N/A   Mostly Cloudy
12:56 AM 33.1 °F 24.4 °F 18.0 °F 54% 29.90 in 10.0 mi SW 11.5 mph - N/A   Mostly Cloudy